Starlink 11504

operational
NORAD ID: 62274 Int'l Des: 2024-237 Owner: SPXS Country: US Constellation: starlink
LEOCIRCULAR

Über Starlink 11504

Beschreibung wird geladen...

Live-Position

3D-Globus wird geladen...

Nächste Überflüge

Höhenverlauf

Altitude vs Time

uPlot chart will show altitude changes over time

Zweizeiliger Elementsatz

1 62274U 24237H 25352.57980808 .00232745 00000-0 17625-2 0 9997
2 62274 43.0005 185.7056 0002182 249.7475 110.3159 15.70900851 60246
Epoch: 18. Dez. 2025 • Age: 25 hours

Aktueller Status

Höhe 361.1 km
Geschwindigkeit 7.69 km/s
Subsatellitenpunkt -28.34°S, 76.85°E
Startdatum 8. Dez. 2024
Alter 1 years
Typ internet

Technische Details

Klassifizierung Payload
Masse 960.00 kg
Trockenmasse 910.00 kg
Gesamtmasse 960.00 kg
Länge 0.30 m
Durchmesser 4.10 m
Spannweite 29.00 m
Form Box + pan
Hersteller SPXS
Bus-Typ Starlink V2MD
Phasenstatus In Orbit
Besitzer/Staat SPXS/US

Große Konstellationen

Loading constellations...